Location: Hilina Pali Trail
(19.2864°N, 155.2806°W)
Time: 19:57:36
(UTC+00:00)

Daily predictions for brighter satellites

Satellite Brightness Start Highest point End
(mag) Time Altitude Azimuth Time Altitude Azimuth Time Altitude Azimuth
ATLAS 3B CENTAUR R/B 4.4 13:18:01 71° ENE 13:18:01 71° ENE 13:40:11 10° ENE
Cosmos 2322 Rocket 4.2 14:01:44 23° ESE 14:02:50 24° ESE 14:07:19 10° NE
EPKM 4.5 14:07:23 69° SSE 14:07:47 70° SSE 14:39:15 10° ENE
Palapa 6 Rocket 4.0 14:35:20 65° NE 14:35:20 65° NE 14:40:08 10° E
Hubble Space Telescope 3.3 14:39:36 16° NE 14:39:36 16° NE 14:40:53 10° NE
IDEFIX/ARIANE 42P 4.2 14:41:28 10° NE 14:46:07 33° E 14:50:44 10° SSE
SL-16 R/B 2.1 14:48:32 54° S 14:49:52 82° ESE 14:55:32 10° NNE
CENTAUR R/B 3.2 14:50:04 51° WSW 14:50:09 52° WSW 14:58:13 10° S
Atlas Centaur 2 3.3 14:57:25 21° S 14:58:33 23° SSE 15:01:50 10° E
ASTRO E2 3.7 14:59:18 40° NE 14:59:18 40° NE 15:02:45 10° E
Okean-O 4.3 14:57:08 10° NE 15:01:08 33° E 15:05:08 10° SSE
USA 215 3.4 14:55:56 10° SE 15:02:27 74° NE 15:07:13 20° NNW
ATLAS 2A CENTAUR R/B 4.1 15:03:45 36° WSW 15:06:20 46° SSW 15:32:56 10° SE
CZ-2C R/B 4.1 15:01:57 10° NNE 15:06:42 36° E 15:11:26 10° SSE
Cosmos 1605 Rocket 3.8 15:01:24 10° SSW 15:07:28 64° W 15:13:30 10° N
Meteor 1-26 Rocket 4.3 15:07:27 10° S 15:13:22 88° E 15:19:15 10° N
Cosmos 2297 Rocket 4.1 15:18:26 14° SSW 15:18:26 14° SSW 15:19:22 10° SSW
CZ-3 R/B 3.1 15:05:44 26° WNW 15:17:37 56° N 15:23:55 10° ENE
Cosmos 405 Rocket 3.5 15:19:02 37° NNW 15:19:02 37° NNW 15:21:36 10° N
Lacrosse 5 rocket 1.5 15:21:45 29° NNW 15:23:42 71° ENE 15:27:56 10° SE
ISS -4.0 15:25:06 78° W 15:25:15 82° NW 15:28:30 10° NE
GPS 2-17 Rocket1 3.1 15:25:40 40° W 15:27:24 83° N 15:32:15 10° E
Cosmos 468 4.4 15:22:14 10° NNW 15:27:27 78° WSW 15:32:40 10° S
CZ-4B R/B 4.3 15:24:02 10° NNW 15:27:27 25° NW 15:27:27 25° NW
Aureole 1 Rocket 4.0 15:28:16 32° WNW 15:29:14 35° W 15:33:23 10° SSW
COSMOS 2455 3.7 15:23:26 10° N 15:29:14 49° ENE 15:35:01 10° SE
Feng Yun 1-1 Rocket 4.2 15:29:18 10° N 15:34:57 75° WNW 15:40:45 10° SSW
GPS 2-15 Rocket1 3.1 15:33:22 32° W 15:35:38 90° N 15:40:27 10° E
Cosmos 1459 Rocket 4.2 15:29:56 10° S 15:36:06 76° E 15:42:22 10° N
Cosmos 2263 Rocket 4.4 15:34:54 10° NNE 15:39:32 26° ENE 15:44:11 10° ESE
Cosmos 405 2.8 15:36:04 10° N 15:39:37 81° W 15:43:11 10° S
Cosmos 2173 Rocket 4.1 15:33:41 10° S 15:39:55 81° E 15:46:04 10° N
Delta 168 3.3 15:40:08 26° NW 15:40:58 30° N 15:43:45 10° ENE
Delta 198 4.1 15:39:29 26° WNW 15:41:31 45° N 15:46:18 10° ENE
Cosmos 1269 Rocket 4.2 15:37:12 10° N 15:42:29 76° ENE 15:47:44 10° SSE
Cosmos 1461 3.4 15:43:32 20° WSW 15:45:57 37° WNW 15:50:00 10° N
Cosmos 2322 Rocket 3.1 15:43:45 18° WSW 15:46:37 27° WNW 15:51:22 10° NNW
Cosmos 1703 Rocket 3.9 15:43:27 10° S 15:47:52 70° E 15:52:19 10° N
Cosmos 1802 Rocket 4.2 15:42:00 10° S 15:48:24 80° E 15:54:47 10° N
Cosmos 2061 Rocket 4.1 15:43:24 10° S 15:49:37 83° E 15:55:48 10° N
Aureole 2 Rocket 1.8 15:48:38 10° SSW 15:51:18 51° WNW 15:53:56 10° N
Lacrosse 4 Rocket 2.4 15:49:36 10° S 15:53:32 48° ESE 15:57:25 10° NE
Cosmos 2360 Rocket 2.1 15:48:22 10° SSW 15:53:59 68° WNW 15:59:37 10° N
PAYLOAD A 4.4 15:51:10 10° N 15:55:41 38° WNW 16:00:23 10° SW
Mugunghwa Rocket 4.5 15:49:33 11° WSW 15:56:20 74° SSE 16:04:09 10° ENE
Milstar 3 Cent rocket 2.9 15:55:59 16° W 16:00:21 58° NNW 16:09:31 10° ENE
OAO 3 Rocket 3.3 15:58:11 12° WNW 16:02:47 83° NNE 16:07:44 10° ESE
SWIFT 2.3 15:59:54 15° W 16:03:21 78° N 16:07:36 10° E
MTI 4.0 16:00:41 10° SSE 16:03:50 70° E 16:07:00 10° N
Cosmos 2227 4.3 16:05:05 10° NNW 16:10:30 52° WSW 16:15:55 10° S
Cosmos 1908 Rocket 3.7 16:09:31 10° N 16:13:52 78° E 16:18:10 10° S
CZ-3C R/B 3.0 16:12:27 10° S 16:14:42 19° SE 16:19:24 10° E
Cosmos 1733 Rocket 3.8 16:12:45 10° NNW 16:16:37 30° W 16:20:29 10° SSW
Meteor 1-25 Rocket 4.3 16:10:55 10° N 16:16:40 75° W 16:22:29 10° S
Okean 1-7 2.9 16:12:43 10° S 16:16:58 70° W 16:21:16 10° N
Delta 7925 Rocket 3.5 16:12:58 10° W 16:17:30 52° NNW 16:22:11 10° ENE
COSMO-SKYMED 1 2.9 16:13:53 10° S 16:17:59 42° W 16:22:06 10° NNW
Hubble Space Telescope 2.2 16:15:48 10° NW 16:19:26 29° NNE 16:23:04 10° ENE
Cosmos 1782 3.7 16:17:26 10° SW 16:20:55 28° W 16:24:24 10° NNW
Palapa 6 Rocket 3.7 16:17:45 10° W 16:23:30 59° SSW 16:28:09 10° ESE
Cosmos 2221 Rocket 3.6 16:19:38 10° S 16:24:05 73° W 16:28:31 10° N
Cosmos 2333 Rocket 3.9 16:19:05 10° S 16:24:25 40° ESE 16:29:43 10° NE
SMAP 3.5 16:20:25 10° NNE 16:25:02 71° E 16:29:40 10° S
IDEFIX/ARIANE 42P 3.9 16:22:01 10° NNW 16:25:23 18° WNW 16:28:44 10° WSW
